Time,TemperatureF,DewpointF,PressureIn,WindDirection,WindDirectionDegrees,WindSpeedMPH,WindSpeedGustMPH,Humidity,HourlyPrecipIn,Conditions,Clouds,dailyrainin,SolarRadiationWatts/m^2,SoftwareType,DateUTC
2013-05-21 00:21:00,34.0,21.0,-100.00,SE,142,0.0,5.0,58,0.00,,,0.00,1.000000,,2013-05-21 08:21:00,
2013-05-21 00:31:00,34.0,21.0,-100.00,SE,142,0.0,5.0,58,0.00,,,0.00,1.000000,,2013-05-21 08:31:00,
2013-05-21 00:41:00,34.0,21.0,-100.00,SE,142,0.0,5.0,58,0.00,,,0.00,1.000000,,2013-05-21 08:41:00,
2013-05-21 00:52:00,34.0,21.0,-100.00,SE,142,0.0,5.0,58,0.00,,,0.00,1.000000,,2013-05-21 08:52:00,
2013-05-21 01:21:00,29.0,20.0,-100.00,East,94,0.0,1.0,68,0.00,,,0.00,0.000000,,2013-05-21 09:21:00,
2013-05-21 01:32:00,29.0,20.0,-100.00,East,94,0.0,1.0,68,0.00,,,0.00,0.000000,,2013-05-21 09:32:00,
2013-05-21 01:41:00,29.0,20.0,-100.00,East,94,0.0,1.0,68,0.00,,,0.00,0.000000,,2013-05-21 09:41:00,
2013-05-21 01:52:00,29.0,20.0,-100.00,East,94,0.0,1.0,68,0.00,,,0.00,0.000000,,2013-05-21 09:52:00,
2013-05-21 02:22:00,28.0,21.0,-100.00,ENE,73,0.0,2.0,76,0.00,,,0.00,0.000000,,2013-05-21 10:22:00,
2013-05-21 02:32:00,28.0,21.0,-100.00,ENE,73,0.0,2.0,76,0.00,,,0.00,0.000000,,2013-05-21 10:32:00,
2013-05-21 02:41:00,28.0,21.0,-100.00,ENE,73,0.0,2.0,76,0.00,,,0.00,0.000000,,2013-05-21 10:41:00,
2013-05-21 02:52:00,28.0,21.0,-100.00,ENE,73,0.0,2.0,76,0.00,,,0.00,0.000000,,2013-05-21 10:52:00,
2013-05-21 03:21:00,27.0,22.0,-100.00,ENE,64,0.0,2.0,80,0.00,,,0.00,0.000000,,2013-05-21 11:21:00,
2013-05-21 04:21:00,26.0,22.0,-100.00,North,351,0.0,4.0,84,0.00,,,0.00,0.000000,,2013-05-21 12:21:00,
2013-05-21 05:22:00,26.0,23.0,-100.00,NNE,23,0.0,1.0,88,0.00,,,0.00,1.000000,,2013-05-21 13:22:00,
2013-05-21 05:31:00,26.0,23.0,-100.00,NNE,23,0.0,1.0,88,0.00,,,0.00,1.000000,,2013-05-21 13:31:00,
2013-05-21 05:41:00,26.0,23.0,-100.00,NNE,23,0.0,1.0,88,0.00,,,0.00,1.000000,,2013-05-21 13:41:00,
2013-05-21 05:52:00,26.0,23.0,-100.00,NNE,23,0.0,1.0,88,0.00,,,0.00,1.000000,,2013-05-21 13:52:00,
2013-05-21 06:21:00,26.0,24.0,-100.00,North,357,0.0,3.0,91,0.00,,,0.00,8.000000,,2013-05-21 14:21:00,
2013-05-21 06:31:00,26.0,24.0,-100.00,North,357,0.0,3.0,91,0.00,,,0.00,8.000000,,2013-05-21 14:31:00,
2013-05-21 06:41:00,26.0,24.0,-100.00,North,357,0.0,3.0,91,0.00,,,0.00,8.000000,,2013-05-21 14:41:00,
2013-05-21 06:51:00,26.0,24.0,-100.00,North,357,0.0,3.0,91,0.00,,,0.00,8.000000,,2013-05-21 14:51:00,
2013-05-21 08:23:00,35.0,31.0,-100.00,North,1,0.0,3.0,84,-99.99,,,0.00,124.000000,,2013-05-21 16:23:00,
2013-05-21 08:32:00,35.0,31.0,-100.00,North,1,0.0,3.0,84,-99.99,,,0.00,124.000000,,2013-05-21 16:32:00,
2013-05-21 08:42:00,35.0,31.0,-100.00,North,1,0.0,3.0,84,-99.99,,,0.00,124.000000,,2013-05-21 16:42:00,
2013-05-21 08:52:00,35.0,31.0,-100.00,North,1,0.0,3.0,84,-99.99,,,0.00,124.000000,,2013-05-21 16:52:00,
2013-05-21 09:23:00,41.0,28.0,-100.00,NW,309,1.0,4.0,59,0.00,,,0.00,162.000000,,2013-05-21 17:23:00,
2013-05-21 09:32:00,41.0,28.0,-100.00,NW,309,1.0,4.0,59,0.00,,,0.00,162.000000,,2013-05-21 17:32:00,
2013-05-21 09:43:00,41.0,28.0,-100.00,NW,309,1.0,4.0,59,0.00,,,0.00,162.000000,,2013-05-21 17:43:00,
2013-05-21 09:52:00,41.0,28.0,-100.00,NW,309,1.0,4.0,59,0.00,,,0.00,162.000000,,2013-05-21 17:52:00,
2013-05-21 10:22:00,46.0,24.0,-100.00,NW,305,1.0,4.0,42,0.00,,,0.00,258.000000,,2013-05-21 18:22:00,
2013-05-21 10:32:00,46.0,24.0,-100.00,NW,305,1.0,4.0,42,0.00,,,0.00,258.000000,,2013-05-21 18:32:00,
2013-05-21 10:42:00,46.0,24.0,-100.00,NW,305,1.0,4.0,42,0.00,,,0.00,258.000000,,2013-05-21 18:42:00,
2013-05-21 10:51:00,46.0,24.0,-100.00,NW,305,1.0,4.0,42,0.00,,,0.00,258.000000,,2013-05-21 18:51:00,
2013-05-21 11:21:00,47.0,25.0,-100.00,West,271,1.0,3.0,41,0.00,,,0.00,338.000000,,2013-05-21 19:21:00,
2013-05-21 11:31:00,47.0,25.0,-100.00,West,271,1.0,3.0,41,0.00,,,0.00,338.000000,,2013-05-21 19:31:00,
2013-05-21 11:41:00,47.0,25.0,-100.00,West,271,1.0,3.0,41,0.00,,,0.00,338.000000,,2013-05-21 19:41:00,
2013-05-21 11:52:00,47.0,25.0,-100.00,West,271,1.0,3.0,41,0.00,,,0.00,338.000000,,2013-05-21 19:52:00,
2013-05-21 12:22:00,51.0,23.0,-100.00,WSW,257,2.0,4.0,33,0.00,,,0.00,471.000000,,2013-05-21 20:22:00,
2013-05-21 12:32:00,51.0,23.0,-100.00,WSW,257,2.0,4.0,33,0.00,,,0.00,471.000000,,2013-05-21 20:32:00,
2013-05-21 12:42:00,51.0,23.0,-100.00,WSW,257,2.0,4.0,33,0.00,,,0.00,471.000000,,2013-05-21 20:42:00,
2013-05-21 12:52:00,51.0,23.0,-100.00,WSW,257,2.0,4.0,33,0.00,,,0.00,471.000000,,2013-05-21 20:52:00,
2013-05-21 13:21:00,53.0,24.0,-100.00,WSW,248,2.0,4.0,32,0.00,,,0.00,553.000000,,2013-05-21 21:21:00,
2013-05-21 13:32:00,53.0,24.0,-100.00,WSW,248,2.0,4.0,32,0.00,,,0.00,553.000000,,2013-05-21 21:32:00,
2013-05-21 13:43:00,53.0,24.0,-100.00,WSW,248,2.0,4.0,32,0.00,,,0.00,553.000000,,2013-05-21 21:43:00,
2013-05-21 13:53:00,53.0,24.0,-100.00,WSW,248,2.0,4.0,32,0.00,,,0.00,553.000000,,2013-05-21 21:53:00,
2013-05-21 14:22:00,53.0,22.0,-100.00,WNW,283,1.0,4.0,30,0.00,,,0.00,451.000000,,2013-05-21 22:22:00,
2013-05-21 14:33:00,53.0,22.0,-100.00,WNW,283,1.0,4.0,30,0.00,,,0.00,451.000000,,2013-05-21 22:33:00,
2013-05-21 14:42:00,53.0,22.0,-100.00,WNW,283,1.0,4.0,30,0.00,,,0.00,451.000000,,2013-05-21 22:42:00,
2013-05-21 14:52:00,53.0,22.0,-100.00,WNW,283,1.0,4.0,30,0.00,,,0.00,451.000000,,2013-05-21 22:52:00,
2013-05-21 15:22:00,55.0,24.0,-100.00,WSW,245,2.0,4.0,30,0.00,,,0.00,485.000000,,2013-05-21 23:22:00,
2013-05-21 15:32:00,55.0,24.0,-100.00,WSW,245,2.0,4.0,30,0.00,,,0.00,485.000000,,2013-05-21 23:32:00,
2013-05-21 15:42:00,55.0,24.0,-100.00,WSW,245,2.0,4.0,30,0.00,,,0.00,485.000000,,2013-05-21 23:42:00,
2013-05-21 15:52:00,55.0,24.0,-100.00,WSW,245,2.0,4.0,30,0.00,,,0.00,485.000000,,2013-05-21 23:52:00,
2013-05-21 16:41:00,59.0,22.0,-100.00,West,268,2.0,6.0,24,0.00,,,0.00,805.000000,,2013-05-22 00:41:00,
2013-05-21 16:51:00,59.0,22.0,-100.00,West,268,2.0,6.0,24,0.00,,,0.00,805.000000,,2013-05-22 00:51:00,
2013-05-21 18:41:00,56.0,23.0,-100.00,WSW,257,1.0,5.0,27,0.00,,,0.00,259.000000,,2013-05-22 02:41:00,
2013-05-21 18:51:00,56.0,23.0,-100.00,WSW,257,1.0,5.0,27,0.00,,,0.00,259.000000,,2013-05-22 02:51:00,
2013-05-21 19:43:00,53.0,22.0,-100.00,South,185,3.0,9.0,30,0.00,,,0.00,335.000000,,2013-05-22 03:43:00,
2013-05-21 19:53:00,53.0,22.0,-100.00,South,185,3.0,9.0,30,0.00,,,0.00,335.000000,,2013-05-22 03:53:00,
2013-05-21 20:22:00,50.0,25.0,-100.00,South,181,3.0,11.0,38,0.00,,,0.00,173.000000,,2013-05-22 04:22:00,
2013-05-21 20:33:00,50.0,25.0,-100.00,South,181,3.0,11.0,38,0.00,,,0.00,173.000000,,2013-05-22 04:33:00,
2013-05-21 20:42:00,50.0,25.0,-100.00,South,181,3.0,11.0,38,0.00,,,0.00,173.000000,,2013-05-22 04:42:00,
2013-05-21 20:52:00,50.0,25.0,-100.00,South,181,3.0,11.0,38,0.00,,,0.00,173.000000,,2013-05-22 04:52:00,
2013-05-21 21:21:00,47.0,26.0,-100.00,SSE,156,3.0,8.0,43,0.00,,,0.00,94.000000,,2013-05-22 05:21:00,
2013-05-21 21:31:00,47.0,26.0,-100.00,SSE,156,3.0,8.0,43,0.00,,,0.00,94.000000,,2013-05-22 05:31:00,
2013-05-21 21:42:00,47.0,26.0,-100.00,SSE,156,3.0,8.0,43,0.00,,,0.00,94.000000,,2013-05-22 05:42:00,
2013-05-21 21:51:00,47.0,26.0,-100.00,SSE,156,3.0,8.0,43,0.00,,,0.00,94.000000,,2013-05-22 05:51:00,
2013-05-21 22:21:00,42.0,25.0,-100.00,SSE,167,2.0,9.0,50,0.00,,,0.00,25.000000,,2013-05-22 06:21:00,
2013-05-21 22:31:00,42.0,25.0,-100.00,SSE,167,2.0,9.0,50,0.00,,,0.00,25.000000,,2013-05-22 06:31:00,
2013-05-21 22:42:00,42.0,25.0,-100.00,SSE,167,2.0,9.0,50,0.00,,,0.00,25.000000,,2013-05-22 06:42:00,
2013-05-21 22:52:00,42.0,25.0,-100.00,SSE,167,2.0,9.0,50,0.00,,,0.00,25.000000,,2013-05-22 06:52:00,
2013-05-21 23:21:00,39.0,24.0,-100.00,SSE,165,1.0,6.0,55,0.00,,,0.00,6.000000,,2013-05-22 07:21:00,
2013-05-21 23:31:00,39.0,24.0,-100.00,SSE,165,1.0,6.0,55,0.00,,,0.00,6.000000,,2013-05-22 07:31:00,
2013-05-21 23:41:00,39.0,24.0,-100.00,SSE,165,1.0,6.0,55,0.00,,,0.00,6.000000,,2013-05-22 07:41:00,
2013-05-21 23:52:00,39.0,24.0,-100.00,SSE,165,1.0,6.0,55,0.00,,,0.00,6.000000,,2013-05-22 07:52:00,